1322352031069,0.988204
1322352091069,0.988850
1322352151069,0.991307
1322352211069,0.998215
1322352271069,0.997660
1322352331069,0.990032
1322352391069,0.990549
1322352451069,0.988223
1322352511069,0.999999
1322352571070,0.986345
1322352631070,0.991924
1322352691069,0.989233
1322352751069,0.985189
1322352811069,0.993827
1322352871069,0.984979
1322352931069,0.995370
1322352991069,0.996481
1322353051069,0.982923
1322353111069,0.987766
1322353171069,0.981606
1322353231069,0.986618
1322353291069,0.985206
1322353351069,0.981285
1322353411069,0.982387
1322353471069,0.983466
1322353531069,0.983497
1322353591069,0.984748
1322353651069,0.983779
1322353711069,0.973237
1322353771069,0.982464
1322353831069,0.974911
1322353891069,0.984558
1322353951070,0.985531
1322354011070,0.979420
1322354071069,0.975084
1322354131069,0.980929
1322354191069,0.982361
1322354251069,0.974483
1322354311069,0.982199
1322354371069,0.986877
1322354431069,0.983606
1322354491069,0.979469
1322354551069,0.973732
1322354611069,0.978703
1322354671069,0.985307
1322354731069,0.981091
1322354791069,0.990095
1322354851069,0.969497
1322354911069,0.983075
1322354971069,0.981787
1322355031069,0.984276
1322355091069,0.982392
1322355151069,0.979501
1322355211069,0.981870
1322355271070,0.975832
1322355331070,0.979146
1322355391069,0.980364
1322355451069,0.976277
1322355511069,0.981494
1322355571069,0.982193
1322355631080,0.983509
1322355691080,0.982971
1322355751080,0.982045
1322355811080,0.988073
1322355871080,0.988531
1322355931080,0.983657
1322355991080,0.977088
1322356051080,0.983059
1322356111080,0.980472
1322356171080,0.978221
1322356231080,0.981052
1322356291080,0.979642
1322356351080,0.976800
1322356411080,0.979301
1322356471080,0.989164
1322356531080,0.983509
1322356591080,0.981184
1322356651080,0.982511
1322356711080,0.985473
1322356771080,0.981289
1322356831080,0.983962
1322356891080,0.983869
1322356951080,0.982394
1322357011080,0.983824
1322357071080,0.981155
1322357131080,0.985987
1322357191080,0.977041
1322357251080,0.981669
1322357311080,0.979601
1322357371080,0.978727
1322357431080,0.986674
1322357491080,0.990807
1322357551080,0.980859
1322357611080,0.979270
1322357671080,0.992401
1322357731080,0.985907
1322357791080,0.983483
1322357851080,0.986920
1322357911080,0.977298
1322357971080,0.976494
1322358031080,0.988560
1322358091080,0.982249
1322358151080,0.977604
1322358211080,0.980740
1322358271080,0.969158
1322358331080,0.981135
1322358391080,0.981617
1322358451080,0.977390
1322358511080,0.977496
1322358571080,0.982321
1322358631080,0.983593
1322358691080,0.976349
1322358751080,0.968247
1322358811080,0.978280
1322358871080,0.979594
1322358931080,0.977143
1322358991080,0.979573
1322359051080,0.978772
1322359111080,0.979251
1322359171080,0.982454
1322359231091,0.977936
1322359291091,0.973711
1322359351091,0.974702
1322359411091,0.977665
1322359471091,0.982475
1322359531091,0.982216
1322359591091,0.975453
1322359651091,0.979314
1322359711091,0.982128
1322359771091,0.983270
1322359831091,0.981430
1322359891091,0.984444
1322359951091,0.990211
1322360011091,0.984049
1322360071091,0.982330
1322360131091,0.985011
1322360191091,0.983186
1322360251091,0.980165
1322360311091,0.981600
1322360371091,0.982139
1322360431091,0.984858
1322360491091,0.978517
1322360551091,0.979279
1322360611091,0.979025
1322360671091,0.990833
1322360731091,0.980595
1322360791091,0.975438
1322360851091,0.978951
1322360911091,0.983438
1322360971091,0.981071
1322361031091,0.977578
1322361091091,0.980425
1322361151091,0.977811
1322361211091,0.983298
1322361271091,0.976978
1322361331091,0.978362
1322361391091,0.983731
1322361451091,0.979041
1322361511091,0.980551
1322361571091,0.975252
1322361631091,0.986391
1322361691091,0.978896
1322361751091,0.973190
1322361811091,0.987779
1322361871091,0.976500
1322361931091,0.985966
1322361991091,0.982572
1322362051091,0.982157
1322362111091,0.976342
1322362171091,0.981344
1322362231091,0.977336
1322362291091,0.984819
1322362351091,0.983382
1322362411091,0.980383
1322362471091,0.978965
1322362531091,0.980020
1322362591091,0.981968
1322362651091,0.982690
1322362711091,0.978329
1322362771091,0.979366
1322362831102,0.981289
1322362891102,0.980109
1322362951102,0.978803
1322363011102,0.977831
1322363071102,0.978549
1322363131102,0.976474
1322363191102,0.978490
1322363251102,0.981183
1322363311102,0.984060
1322363371102,0.980596
1322363431102,0.975486
1322363491102,0.980568
1322363551102,0.986646
1322363611102,0.986577
1322363671102,0.976036
1322363731102,0.978259
1322363791102,0.980745
1322363851102,0.973559
1322363911102,0.989362
1322363971102,0.982388
1322364031102,0.976238
1322364091102,0.985496
1322364151102,0.983942
1322364211102,0.980876
1322364271102,0.976680
1322364331102,0.986559
1322364391102,0.975520
1322364451102,0.981049
1322364511102,0.982481
1322364571102,0.985018
1322364631102,0.986094
1322364691102,0.994409
1322364751102,0.983295
1322364811102,0.983550
1322364871102,0.982866
1322364931102,0.983936
1322364991102,0.979412
1322365051102,0.984491
1322365111102,0.983544
1322365171102,0.984096
1322365231102,0.969765
1322365291102,0.979934
1322365351102,0.984370
1322365411102,0.986898
1322365471102,0.978551
1322365531102,0.987129
1322365591102,0.985063
1322365651102,0.992565
1322365711102,0.981957
1322365771102,0.982592
1322365831102,0.985769
1322365891102,0.981730
1322365951102,0.980867
1322366011102,0.990202
1322366071102,0.987407
1322366131102,1.03138
1322366191102,0.984607
1322366251102,0.983656
1322366311102,0.987770
1322366371102,0.986868
1322366431112,0.981971
1322366491112,0.986074
1322366551112,0.979250
1322366611112,0.983172
1322366671112,0.979026
1322366731112,0.990778
1322366791112,0.989487
1322366851112,0.984100
1322366911112,0.988100
1322366971112,0.988478
1322367031112,0.989082
1322367091112,0.987402
1322367151112,0.982318
1322367211112,0.983500
1322367271112,0.986166
1322367331112,0.978243
1322367391112,0.982925
1322367451112,0.981591
1322367511112,0.989424
1322367571112,0.988116
1322367631112,0.995860
1322367691112,0.991518
1322367751112,0.994936
1322367811112,0.993952
1322367871112,0.993843
1322367931112,0.982176
1322367991112,0.992367
1322368051112,0.991438
1322368111112,0.998978
1322368171112,0.993172
1322368231112,0.994553
1322368291112,0.990244
1322368351112,0.991457
1322368411112,0.988185
1322368471112,0.990361
1322368531112,0.990282
1322368591112,0.993990
1322368651112,0.992218
1322368711112,0.987340
1322368771112,0.988759
1322368831112,0.988275
1322368891112,0.987324
1322368951112,0.988537
1322369011112,0.984937
1322369071112,0.991962
1322369131112,0.980829
1322369191112,0.987456
1322369251112,0.980049
1322369311112,0.991678
1322369371112,0.987989
1322369431112,0.996287
1322369491112,0.998375
1322369551112,0.996059
1322369611112,0.988602
1322369671112,0.991416
1322369731112,0.995728
1322369791112,0.991207
1322369851112,0.990666
1322369911112,0.988372
1322369971112,0.989583
1322370031123,0.981110
1322370091123,0.995080
1322370151123,0.992357
1322370211123,1.00089
1322370271123,0.992917
1322370331123,0.991800
1322370391123,0.995600
1322370451123,0.991342
1322370511123,0.986752
1322370571123,0.993749
1322370631123,0.994174
1322370691123,0.983964
1322370751123,0.994973
1322370811123,0.990672
1322370871123,0.989245
1322370931123,0.995440
1322370991123,0.995670
1322371051123,0.993550
1322371111123,0.995665
1322371171123,1.00190
1322371231123,0.994387
1322371291123,0.999731
1322371351123,0.999337
1322371411123,1.00402
1322371471123,0.999251
1322371531123,1.00746
1322371591123,0.995698
1322371651123,1.00184
1322371711123,0.994622
1322371771123,0.994200
1322371831123,1.00181
1322371891123,1.00025
1322371951123,0.996445
1322372011123,0.993429
1322372071123,0.993803
1322372131123,0.998857
1322372191123,1.00242
1322372251123,0.995261
1322372311123,1.00176
1322372371123,0.996699
1322372431123,0.990776
1322372491123,0.991951
1322372551123,0.995631
1322372611123,0.990416
1322372671123,0.997919
1322372731123,0.995209
1322372791123,0.995293
1322372851123,1.00037
1322372911123,0.996181
1322372971123,0.996017
1322373031123,0.995230
1322373091123,1.00029
1322373151123,0.995781
1322373211123,0.997837
1322373271123,0.999471
1322373331123,0.996365
1322373391123,0.994727
1322373451123,0.994847
1322373511123,0.992680
1322373571123,0.991707
1322373631134,0.988207
1322373691134,0.991010
1322373751134,0.995409
1322373811134,0.999377
1322373871134,0.992434
1322373931134,1.00295
1322373991134,0.994652
1322374051134,0.988215
1322374111134,0.995755
1322374171134,0.990528
1322374231134,0.990228
1322374291134,0.990624
1322374351134,0.991923
1322374411134,0.996176
1322374471134,0.995222
1322374531134,0.997833
1322374591134,0.997085
1322374651134,0.997291
1322374711134,0.997550
1322374771134,0.996369
1322374831134,0.995962
1322374891134,0.997553
1322374951134,0.998384
1322375011134,0.988288
1322375071134,0.996142
1322375131134,0.992049
1322375191134,1.00107
1322375251134,0.995957
1322375311134,0.991247
1322375371134,1.00386
1322375431134,0.994227
1322375491134,0.987433
1322375551134,0.988287
1322375611134,0.995124
1322375671134,0.999348
1322375731134,0.989729
1322375791134,1.00352
1322375851134,0.990678
1322375911134,0.993438
1322375971134,0.995000
1322376031134,0.995588
1322376091134,0.990943
1322376151134,0.991117
1322376211134,1.00147
1322376271134,1.00366
1322376331134,1.00173
1322376391134,1.00689
1322376451134,0.997744
1322376511134,0.997496
1322376571134,0.996154
1322376631134,1.00245
1322376691134,0.992888
1322376751134,0.994640
1322376811134,1.00111
1322376871134,0.993514
1322376931134,0.998607
1322376991134,1.00523
1322377051134,1.00065
1322377111134,0.995742
1322377171134,0.994031
1322377231145,0.998114
1322377291145,1.00220
1322377351145,1.00247
1322377411145,0.988586
1322377471145,1.00145
1322377531145,0.996649
1322377591145,0.995637
1322377651145,0.994834
1322377711145,0.993484
1322377771145,0.994531
1322377831145,0.991870
1322377891145,0.999522
1322377951145,0.992053
1322378011145,0.999552
1322378071145,0.997164
1322378131145,0.989802
1322378191145,0.993369
1322378251145,0.991628
1322378311145,0.986988
1322378371145,0.997365
1322378431145,1.00056
1322378491145,0.992448
1322378551145,0.989468
1322378611145,0.991729
1322378671145,0.990914
1322378731145,0.990142
1322378791145,1.00439
1322378851145,0.991504
1322378911145,0.989945
1322378971145,0.989524
1322379031145,0.990512
1322379091145,0.991280
1322379151145,0.986914
1322379211145,0.994854
1322379271145,0.996512
1322379331145,0.995112
1322379391145,0.995983
1322379451145,1.00104
1322379511145,0.997165
1322379571145,0.991963
1322379631145,0.997677
1322379691145,1.00065
1322379751145,0.990583
1322379811145,1.00190
1322379871145,0.992477
1322379931145,0.996519
1322379991145,0.988149
1322380051145,0.994410
1322380111145,0.993468
1322380171145,0.988490
1322380231145,0.999130
1322380291145,0.986162
1322380351145,0.988150
1322380411145,1.00451
1322380471145,1.00083
1322380531145,0.998674
1322380591145,0.991034
1322380651145,0.992947
1322380711145,1.00591
1322380771145,1.00019
1322380831156,1.00266
1322380891156,0.998549
1322380951156,0.999563
1322381011156,0.999761
1322381071156,0.997440
1322381131156,0.993703
1322381191156,1.00216
1322381251156,0.997299
1322381311156,0.993061
1322381371156,0.993961
1322381431156,0.995539
1322381491156,0.996803
1322381551156,0.992256
1322381611156,0.989769
1322381671156,0.995768
1322381731156,0.996511
1322381791156,1.00291
1322381851156,0.991996
1322381911156,0.995808
1322381971156,1.00890
1322382031156,1.00722
1322382091156,0.997628
1322382151156,1.00169
1322382211156,1.00585
1322382271156,1.00408
1322382331156,0.995518
1322382391156,1.00252
1322382451156,0.997885
1322382511156,0.992274
1322382571156,1.00661
1322382631156,0.998172
1322382691156,0.994855
1322382751156,1.00126
1322382811156,1.00016
1322382871156,1.00293
1322382931156,0.993615
1322382991156,0.993536
1322383051156,0.998602
1322383111156,0.999948
1322383171156,0.998591
1322383231156,1.00103
1322383291156,1.00905
1322383351156,0.998539
1322383411156,0.998320
1322383471156,0.995757
1322383531156,1.00445
1322383591156,0.997409
1322383651156,1.00104
1322383711156,0.991818
1322383771156,1.00249
1322383831156,0.996650
1322383891156,1.00055
1322383951156,1.00548
1322384011156,0.997072
1322384071156,0.999493
1322384131156,0.996295
1322384191156,0.994766
1322384251156,0.994747
1322384311156,0.997131
1322384371156,0.996840
1322384431168,0.994236
1322384491168,0.997485
1322384551168,0.996039
1322384611168,0.994747
1322384671168,0.997792
1322384731168,0.997367
1322384791168,0.992612
1322384851168,0.994951
1322384911168,0.990432
1322384971168,1.00097
1322385031168,1.00121
1322385091168,0.996557
1322385151168,0.994265
1322385211168,1.00179
1322385271168,0.992942
1322385331168,0.999950
1322385391168,0.996907
1322385451168,1.00092
1322385511168,0.996997
1322385571168,0.996369
1322385631168,1.00053
1322385691168,1.00360
1322385751168,0.997118
1322385811168,0.998718
1322385871168,0.993807
1322385931168,0.992638
1322385991168,0.992726
1322386051168,0.994127
1322386111168,0.986750
1322386171168,1.00142
1322386231168,0.992968
1322386291168,1.00815
1322386351168,1.00045
1322386411168,0.996123
1322386471168,1.00376
1322386531168,0.992788
1322386591168,0.996482
1322386651168,1.00113
1322386711168,0.993222
1322386771168,0.991326
1322386831168,0.997924
1322386891168,0.993508
1322386951168,0.997210
1322387011168,0.997861
1322387071168,0.998090
1322387131168,0.993963
1322387191168,1.00190
1322387251168,0.998058
1322387311168,0.999456
1322387371168,1.00229
1322387431168,1.00206
1322387491168,1.00438
1322387551168,1.00086
1322387611168,1.00002
1322387671168,1.00274
1322387731168,1.01461
1322387791168,1.00202
1322387851168,1.00345
1322387911168,1.00975
1322387971168,1.00926
1322388031180,1.01001
1322388091180,1.01372
1322388151180,1.01553
1322388211180,1.01537
1322388271180,1.01620
1322388331180,1.01159
1322388391180,1.02605
1322388451180,1.02254
1322388511180,1.01771
1322388571180,1.01931
1322388631180,1.02818
1322388691180,1.02562
1322388751180,1.03188
1322388811180,1.02293
1322388871180,1.02933
1322388931180,1.03017
1322388991180,1.03225
1322389051180,1.03555
1322389111180,1.04400
1322389171180,1.03751
1322389231180,1.03953
1322389291180,1.04034
1322389351180,1.04608
1322389411180,1.03892
1322389471180,1.04301
1322389531180,1.04566
1322389591180,1.04367
1322389651180,1.04619
1322389711180,1.04790
1322389771180,1.05116
1322389831180,1.05070
1322389891180,1.04951
1322389951180,1.04519
1322390011180,1.04353
1322390071180,1.05152
1322390131180,1.04877
1322390191180,1.03907
1322390251180,1.05534
1322390311180,1.04423
1322390371180,1.05076
1322390431180,1.05400
1322390491180,1.03696
1322390551180,1.04049
1322390611180,1.04636
1322390671180,1.03107
1322390731180,1.04615
1322390791180,1.04487
1322390851180,1.04230
1322390911180,1.04323
1322390971180,1.04016
1322391031180,1.05059
1322391091180,1.04088
1322391151180,1.03903
1322391211180,1.04576
1322391271180,1.04738
1322391331180,1.04097
1322391391180,1.03911
1322391451180,1.04848
1322391511180,1.05093
1322391571180,1.04825
1322391631192,1.05957
1322391691192,1.06864
1322391751192,1.06837
1322391811192,1.07304
1322391871192,1.07507
1322391931192,1.06467
1322391991192,1.07080
1322392051192,1.07325
1322392111192,1.07120
1322392171192,1.06786
1322392231192,1.06484
1322392291192,1.07749
1322392351192,1.06312
1322392411192,1.06453
1322392471192,1.07061
1322392531192,1.07104
1322392591192,1.07539
1322392651192,1.06569
1322392711192,1.06746
1322392771192,1.06552
1322392831192,1.06195
1322392891192,1.06588
1322392951192,1.05509
1322393011192,1.06868
1322393071192,1.06331
1322393131192,1.06827
1322393191192,1.06408
1322393251192,1.06178
1322393311192,1.05592
1322393371192,1.05304
1322393431192,1.06047
1322393491192,1.04467
1322393551192,1.04554
1322393611192,1.04768
1322393671192,1.05037
1322393731192,1.04548
1322393791192,1.04455
1322393851192,1.03448
1322393911192,1.03956
1322393971192,1.03344
1322394031192,1.03185
1322394091192,1.02381
1322394151192,1.03402
1322394211192,1.02851
1322394271192,1.03045
1322394331192,1.03099
1322394391192,1.03101
1322394451192,1.02477
1322394511192,1.03174
1322394571192,1.03330
1322394631192,1.02996
1322394691192,1.02559
1322394751192,1.02506
1322394811192,1.03101
1322394871192,1.02869
1322394931192,1.01357
1322394991192,1.02145
1322395051192,1.02725
1322395111192,1.01952
1322395171192,1.01707
1322395231204,1.01855
1322395291205,1.02215
1322395351205,1.04381
1322395411205,1.03676
1322395471205,1.04787
1322395531205,1.03394
1322395591204,1.04169
1322395651205,1.02943
1322395711205,1.03366
1322395771205,1.03257
1322395831205,1.01983
1322395891205,1.02738
1322395951205,1.02207
1322396011205,1.01663
1322396071205,1.01847
1322396131205,1.01642
1322396191205,1.02145
1322396251205,1.01235
1322396311204,1.02133
1322396371204,1.01470
1322396431204,1.01441
1322396491204,1.01166
1322396551204,1.01774
1322396611204,1.00938
1322396671205,1.00438
1322396731205,1.01821
1322396791205,1.01614
1322396851205,1.01258
1322396911205,1.01768
1322396971205,1.01246
1322397031205,1.01109
1322397091205,1.00614
1322397151205,1.00987
1322397211205,1.01370
1322397271205,1.01121
1322397331205,1.01502
1322397391205,1.00980
1322397451205,1.01136
1322397511205,1.01268
1322397571205,1.01027
1322397631204,1.00535
1322397691204,1.01265
1322397751204,1.01590
1322397811204,1.00768
1322397871204,1.01345
1322397931204,1.01239
1322397991205,1.00446
1322398051205,1.00415
1322398111205,1.00586
1322398171205,1.00871
1322398231205,1.00339
1322398291204,1.01252
1322398351205,1.01193
1322398411205,1.00963
1322398471205,1.01214
1322398531205,1.01340
1322398591205,1.01692
1322398651205,1.02257
1322398711205,1.01652
1322398771205,1.01606
1322398831217,1.02032
1322398891217,1.02119
1322398951217,1.01906
1322399011217,1.02031
1322399071217,1.01932
1322399131217,1.01258
1322399191217,1.01251
1322399251217,1.01461
1322399311217,1.01290
1322399371217,1.01326
1322399431217,1.01415
1322399491217,1.01098
1322399551217,1.01380
1322399611217,1.00463
1322399671217,1.01153
1322399731217,1.00141
1322399791217,1.00946
1322399851217,1.00113
1322399911217,1.00586
1322399971217,1.01307
1322400031217,1.00793
1322400091217,1.00179
1322400151217,1.02091
1322400211217,1.00353
1322401351217,0.990538
1322401411217,1.01247
1322401471217,1.00220
1322401531217,1.00871
1322401591217,1.00235
1322401651217,1.00456
1322401711217,1.00436
1322401771217,1.00442
1322401831217,1.00803
1322401891217,1.01060
1322401951217,1.01195
1322402011217,1.02091
1322402071217,1.00840
1322402131217,1.00761
1322402191217,1.00793
1322402251217,1.01311
1322402311217,1.01287
1322402371217,1.00159
1322402431230,1.01144
1322402491230,1.00151
1322402551230,1.00446
1322402611230,1.00873
1322402671230,1.00178
1322402731230,1.00250
1322402791230,1.00428
1322402851230,1.00118
1322402911230,1.01019
1322402971230,1.01004
1322403031230,1.00800
1322403091230,1.00445
1322403151230,1.01263
1322403211230,1.01190
1322403271230,1.01526
1322403331230,1.01953
1322403391230,1.01506
1322403451230,1.01119
1322403511230,1.01081
1322403571230,1.01345
1322403631230,1.01155
1322403691230,1.01757
1322403751230,1.01488
1322403811230,1.01370
1322403871230,1.00859
1322403931230,1.01815
1322403991230,1.01342
1322404051230,1.01323
1322404111230,1.00702
1322404171230,1.00488
1322404231230,1.00675
1322404291230,1.00594
1322404351230,1.01680
1322404411230,1.01158
1322404471230,1.01158
1322404531230,1.00747
1322404591230,1.00658
1322404651230,1.00141
1322404711230,1.00017
1322404771230,1.00176
1322404831230,0.996083
1322404891230,0.999360
1322404951230,0.999926
1322405011230,1.00621
1322405071230,1.00537
1322405131230,1.00102
1322405191230,0.995690
1322405251230,1.00216
1322405311230,0.995794
1322405371230,1.00171
1322405431230,1.01213
1322405491230,1.00380
1322405551230,1.00905
1322405611230,1.01180
1322405671230,1.00677
1322405731230,0.996525
1322405791230,1.00120
1322405851230,0.998476
1322405911230,1.00454
1322405971230,1.00108
1322406031242,1.00003
1322406091242,1.00553
1322406151242,1.00166
1322406211242,1.00859
1322406271242,1.01458
1322406331242,1.00382
1322406391242,1.00463
1322406451242,1.01087
1322406511242,1.00748
1322406571242,1.00353
1322406631242,1.01139
1322406691242,1.00530
1322406751242,1.00773
1322406811242,1.00234
1322406871242,1.01079
1322406931242,1.00670
1322406991242,1.00996
1322407051242,1.01035
1322407111242,1.00168
1322407171242,1.00759
1322407231242,1.00420
1322407291242,1.01332
1322407351242,1.00953
1322407411242,1.00440
1322407471242,1.01971
1322407531242,1.00159
1322407591242,1.01077
1322407651242,1.00686
1322407711242,1.00155
1322407771242,1.01217
1322407831242,1.00827
1322407891242,1.00381
1322407951242,1.00967
1322408011242,1.01103
1322408071242,1.00277
1322408131242,1.00431
1322408191242,1.00315
1322408251242,1.00667
1322408311242,1.00945
1322408371242,1.00627
1322408431242,0.996638
1322408491242,1.00225
1322408551242,1.00101
1322408611242,1.00569
1322408671242,1.00608
1322408731242,1.00741
1322408791242,1.00559
1322408851242,1.00946
1322408911242,1.00167
1322408971242,1.00316
1322409031242,0.998140
1322409091242,1.00626
1322409151242,1.01102
1322409211242,1.00829
1322409271242,1.00303
1322409331242,0.999188
1322409391242,1.00689
1322409451242,1.00210
1322409511242,1.00342
1322409571242,1.00384
1322409631255,0.997188
1322409691255,1.00646
1322409751255,1.00301
1322409811255,1.01528
1322409871255,1.01087
1322409931255,1.00620
1322409991255,1.00244
1322410051255,1.00448
1322410111255,1.01139
1322410171255,1.00073
1322410231255,1.00545
1322410291255,1.00270
1322410351255,0.997173
1322410411255,1.01109
1322410471255,1.00640
1322410531255,1.01060
1322410591255,1.00068
1322410651255,1.00666
1322410711255,0.993626
1322410771255,1.00601
1322410831255,0.995622
1322410891255,1.00440
1322410951255,1.00608
1322411011255,1.00548
1322411071255,1.00589
1322411131255,1.00583
1322411191255,1.02171
1322411251255,1.01589
1322411311255,1.01560
1322411371255,1.02071
1322411431255,1.01857
1322411491255,1.01943
1322411551255,1.01243
1322411611255,1.02115
1322411671255,1.01598
1322411731255,1.01513
1322411791255,1.01234
1322411851255,1.01080
1322411911255,1.01686
1322411971255,1.01507
1322412031255,1.00645
1322412091255,1.00817
1322412151255,1.01210
1322412211255,1.00707
1322412271255,1.00971
1322412331255,1.00523
1322412391255,1.00092
1322412451255,1.00415
1322412511255,1.00368
1322412571255,1.00707
1322412631255,1.00902
1322412691255,1.01017
1322412751255,1.01484
1322412811255,1.01144
1322412871255,1.00336
1322412931255,1.01454
1322412991255,1.00361
1322413051255,1.01095
1322413111255,1.00406
1322413171255,1.00658
1322413231268,1.00636
1322413291268,1.00101
1322413351268,1.00694
1322413411268,1.00843
1322413471268,1.00443
1322413531268,1.01367
1322413591268,0.997388
1322413651268,1.01036
1322413711268,1.00815
1322413771268,1.01126
1322413831268,1.00938
1322413891268,1.00514
1322413951267,1.00819
1322414011267,1.00850
1322414071268,1.00194
1322414131268,1.01156
1322414191268,0.994983
1322414251268,1.00258
1322414311268,1.00859
1322414371268,1.00129
1322414431268,1.00279
1322414491268,1.01340
1322414551268,1.00667
1322414611268,1.00564
1322414671268,1.00701
1322414731268,1.00894
1322414791268,1.00746
1322414851268,1.00769
1322414911268,1.01022
1322414971268,1.01773
1322415031268,1.02172
1322415091268,1.01740
1322415151268,1.02165
1322415211268,1.01984
1322415271267,1.02468
1322415331267,1.02919
1322415391267,1.02902
1322415451268,1.01803
1322415511268,1.02405
1322415571268,1.03287
1322415631268,1.02478
1322415691268,1.01725
1322415751268,1.01744
1322415811268,1.00700
1322415871268,1.00600
1322415931268,1.01559
1322415991268,1.01351
1322416051268,1.01703
1322416111268,1.01231
1322416171268,1.01685
1322416231268,1.01941
1322416291268,1.01595
1322416351268,1.01291
1322416411268,1.00921
1322416471268,1.00340
1322416531268,1.01238
1322416591268,1.01190
1322416651267,1.00901
1322416711267,1.01810
1322416771268,1.01733
1322416831280,1.00822
1322416891280,1.01274
1322416951280,1.00755
1322417011280,1.00667